Starlink 35282

operational
NORAD ID: 65658 Int'l Des: 2025-211 Owner: SPXS Country: US Constellation: starlink
NOTLE

About Starlink 35282

Description loading...

Live Position

Loading 3D Globe...

Upcoming Passes

Altitude History

Altitude vs Time

uPlot chart will show altitude changes over time

Two-Line Element Set

1 65658U 25211G 25314.08059317 -.00010164 00000-0 -70115-3 0 9990
2 65658 97.6047 356.1527 0000455 103.1329 256.9948 15.05654452 9040
Epoch: Nov 10, 2025 • Age: 36 hours

Current Status

Altitude 577.1 km
Velocity 7.57 km/s
Sub-Earth Point -74.40°S, 120.85°E
Launch Date Sep 19, 2025
Age 0.1 years
Type internet

Technical Details

Classification Payload
Mass 575.00 kg
Dry Mass 530.00 kg
Total Mass 575.00 kg
Length 0.30 m
Diameter 4.10 m
Span 29.00 m
Shape Box + pan
Manufacturer SPXS
Bus Type Starlink V2MO
Phase Status In Orbit
Owner/State SPXS/US

Large Constellations

Loading constellations...